[[{"header":{"parameterUnit":"m.s-1","parameterCategory":1,"la1":30.2991,"la2":30.254,"lo1":-89.0895,"lo2":-89.0444,"dy":0.0017,"dx":0.0017,"nx":28,"ny":28,"refTime":"2025-08-23T03:00:00:Z","depth":0,"parameterNumber":2,"parameterNumberName":"U-component_of_WINDS"},"data":[0,0,0,0,0,0,0,0,0,0,0,0,0,0,0,0,0,0,0,0,0,0,0,0,0,0,0,0,0,0,0,0,0,0,0,0,0,0,0,0,0,0,0,0,0,0,0,0,0,0,0,0,0,0,0,0,0,0,0.4989,0.4989,0,0.4969,0.4969,0.4969,0.4971,0.4971,0.4971,0.4972,0.4948,0.4947,0.4946,0,0,0,0,0,0,0,0,0,0,0,0,0,0.5029,0.5028,0.4989,0.4989,0.4989,0.4969,0.4969,0.4969,0.4971,0.4971,0.4972,0.4972,0.4949,0.4947,0.4946,0,0,0,0,0,0,0,0,0,0,0,0,0,0.501,0.5028,0.4989,0.4988,0.4987,0.4969,0.4969,0.4968,0.4971,0.4971,0.4972,0.4972,0.4949,0.4948,0.4946,0.4928,0,0,0.4942,0.4941,0,0,0,0,0,0,0,0,0.5011,0.5009,0.4988,0.4988,0.4987,0.4973,0.4974,0.4955,0.4971,0.4977,0.4972,0.4972,0.4956,0.4954,0.4949,0.4927,0.4926,0.4942,0.4941,0.494,0.494,0,0,0,0,0,0,0,0.5013,0.501,0.4981,0.4988,0.4987,0.4987,0.4985,0.497,0.4964,0.4976,0.4977,0.4974,0.4956,0.495,0.4948,0.4925,0.4942,0.4941,0.494,0.4939,0.4888,0.4888,0,0,0,0,0,0,0.5015,0.5011,0.4982,0.4981,0.5001,0.4986,0.4984,0.4977,0.4964,0.4963,0.4974,0.4974,0.4953,0.495,0.4948,0.4926,0.494,0.4939,0.4938,0.4889,0.4888,0.4887,0,0,0,0,0,0,0.5015,0.5012,0.4983,0.4996,0.4992,0.4985,0.4977,0.4976,0.4971,0.4962,0.4961,0.497,0.4953,0.495,0.4933,0.4925,0.4938,0.4937,0.4889,0.4888,0.4888,0.4882,0,0,0,0,0,0,0.5017,0.5012,0.5005,0.4996,0.4991,0.4969,0.4977,0.4976,0.4969,0.4969,0.4958,0.4956,0.4953,0.4935,0.4932,0.4923,0.4936,0.489,0.4889,0.4888,0.4883,0.4881,0.4879,0,0,0,0,0,0.5018,0.5003,0.5005,0.5001,0.4983,0.4968,0.4966,0.4963,0.4968,0.4961,0.4956,0.4957,0.4927,0.4934,0.493,0.4921,0.489,0.4889,0.4888,0.4883,0.4881,0.4879,0,0,0,0,0,0,0.5011,0.5002,0.5004,0.4986,0.4978,0.4969,0.496,0.4961,0.4951,0.4951,0.4948,0.4945,0.4929,0.4923,0.4931,0.4903,0.4909,0.4907,0.4907,0.4905,0.4903,0.4905,0.4935,0,0,0,0,0,0.5008,0.4997,0.499,0.4975,0.4971,0.4966,0.496,0.4959,0.495,0.4946,0.494,0.4931,0.492,0.4912,0.4901,0.4882,0.488,0.4874,0.4873,0.4872,0.487,0.486,0.4858,0.4884,0.4884,0.4884,0,0,0.5,0.4994,0.4987,0.4973,0.4967,0.4957,0.4963,0.4951,0.4943,0.4944,0.4929,0.4924,0.4914,0.4896,0.4888,0.4891,0.4862,0.487,0.4869,0.4868,0.4859,0.4856,0.4854,0.4883,0.4883,0.4883,0,0,0.498,0.4975,0.4962,0.4957,0.4948,0.4945,0.4942,0.4933,0.493,0.4915,0.4916,0.4906,0.4887,0.488,0.4874,0.4854,0.4855,0.4851,0.4842,0.4833,0.4831,0.4829,0.4823,0.482,0.4849,0.4849,0.4849,0,0.4972,0.4956,0.4955,0.4944,0.4938,0.494,0.4928,0.4922,0.4909,0.4905,0.4909,0.4886,0.4879,0.4861,0.4856,0.4851,0.4848,0.4852,0.4832,0.483,0.4828,0.4822,0.4819,0.4849,0.4849,0.4849,0.4849,0,0.4946,0.4936,0.4927,0.4916,0.4909,0.4897,0.4894,0.4888,0.4888,0.4884,0.4869,0.4862,0.485,0.4846,0.4845,0.4827,0.483,0.4833,0.4839,0.4825,0.4819,0.4817,0.4848,0.4848,0.4848,0.4849,0,0,0.492,0.4911,0.4908,0.4904,0.4896,0.4887,0.4875,0.4865,0.486,0.4851,0.4842,0.4826,0.483,0.4823,0.4821,0.4814,0.48,0.4818,0.4817,0.4815,0.4781,0.4779,0.4776,0.4801,0.48,0.48,0.4782,0,0.49,0.4881,0.488,0.4862,0.4853,0.4856,0.4846,0.4839,0.4837,0.4828,0.4824,0.4814,0.4819,0.4815,0.4807,0.4803,0.4793,0.4804,0.4791,0.4791,0.4793,0.4773,0.477,0.4753,0.4779,0.4779,0.4779,0,0.4874,0.4867,0.4848,0.4842,0.4838,0.4829,0.4821,0.4812,0.4806,0.4804,0.4798,0.4798,0.4786,0.4794,0.4778,0.4786,0.4781,0.4778,0.4777,0.4775,0.4783,0.477,0.4748,0.4745,0.4775,0.4775,0.4776,0,0.4857,0.4843,0.483,0.4826,0.4819,0.4813,0.481,0.4804,0.4798,0.4791,0.4787,0.4778,0.4772,0.4765,0.4763,0.4769,0.4748,0.4754,0.4746,0.4746,0.474,0.4741,0.4717,0.4738,0.4738,0.4738,0.4738,0,0.4835,0.4823,0.4823,0.4815,0.4802,0.4802,0.479,0.4787,0.4782,0.4773,0.4775,0.4767,0.4765,0.4757,0.4755,0.4742,0.474,0.4738,0.4738,0.4738,0.4738,0.4734,0.4735,0.4737,0.4737,0.4737,0.4737,0,0.4813,0.4813,0.4799,0.4795,0.4793,0.4784,0.478,0.4772,0.4771,0.476,0.4758,0.4754,0.4745,0.4743,0.473,0.473,0.4715,0.4715,0.4717,0.4717,0.4709,0.471,0.4681,0.4678,0.4701,0.4701,0.47,0,0.4799,0.479,0.4785,0.4781,0.4777,0.4769,0.4764,0.4764,0.4759,0.4752,0.4745,0.4736,0.4729,0.4713,0.471,0.4701,0.4701,0.4692,0.47,0.4701,0.4702,0.4702,0.4702,0.469,0.469,0.469,0.469,0,0.4773,0.4774,0.4767,0.476,0.4755,0.4749,0.4743,0.4739,0.4739,0.4733,0.4724,0.4718,0.4707,0.4698,0.469,0.4686,0.4688,0.4688,0.4685,0.4685,0.4687,0.4686,0.4713,0.4688,0.4688,0.4688,0.4688,0.4688,0.4755,0.4748,0.4744,0.4737,0.4733,0.4729,0.4722,0.472,0.4713,0.4705,0.4705,0.4696,0.469,0.468,0.4676,0.4668,0.4671,0.4667,0.4666,0.4665,0.4665,0.4688,0.4666,0.4666,0.4666,0.4666,0.4666,0,0.473,0.4728,0.4721,0.4715,0.4709,0.4713,0.4708,0.4702,0.4694,0.469,0.4683,0.4673,0.4665,0.4662,0.4654,0.4648,0.4649,0.4646,0.4647,0.4646,0.4662,0.4665,0.4646,0.4646,0.4646,0.4646,0.4646,0.4646,0.4716,0.4705,0.4706,0.4693,0.4691,0.4682,0.4679,0.4675,0.4672,0.4661,0.4655,0.4653,0.465,0.4642,0.4635,0.4634,0.4631,0.4628,0.4627,0.4642,0.4645,0.4646,0.4649,0.4627,0.4627,0.4611,0.4611,0.4611]},{"header":{"parameterUnit":"m.s-1","parameterCategory":1,"la1":30.2991,"la2":30.254,"lo1":-89.0895,"lo2":-89.0444,"dy":0.0017,"dx":0.0017,"nx":28,"ny":28,"refTime":"2025-08-23T03:00:00:Z","depth":0,"parameterNumber":3,"parameterNumberName":"V-component_of_WINDS"},"data":[0,0,0,0,0,0,0,0,0,0,0,0,0,0,0,0,0,0,0,0,0,0,0,0,0,0,0,0,0,0,0,0,0,0,0,0,0,0,0,0,0,0,0,0,0,0,0,0,0,0,0,0,0,0,0,0,0,0,-2.6653,-2.6654,0,-2.6715,-2.6715,-2.6716,-2.6686,-2.6684,-2.6683,-2.6681,-2.6741,-2.6744,-2.6747,0,0,0,0,0,0,0,0,0,0,0,0,0,-2.6505,-2.6508,-2.6653,-2.6654,-2.6654,-2.6714,-2.6715,-2.6716,-2.6686,-2.6684,-2.6682,-2.6681,-2.674,-2.6744,-2.6747,0,0,0,0,0,0,0,0,0,0,0,0,0,-2.6568,-2.6509,-2.6653,-2.6647,-2.6647,-2.6714,-2.6715,-2.6716,-2.6687,-2.6684,-2.6682,-2.668,-2.6739,-2.6743,-2.6748,-2.6824,0,0,-2.6762,-2.6764,0,0,0,0,0,0,0,0,-2.6565,-2.6574,-2.6647,-2.6647,-2.6648,-2.669,-2.6685,-2.6752,-2.6687,-2.6671,-2.6681,-2.6679,-2.6726,-2.6731,-2.6748,-2.6826,-2.6829,-2.6762,-2.6765,-2.6767,-2.6768,0,0,0,0,0,0,0,-2.656,-2.6571,-2.6677,-2.6648,-2.6648,-2.664,-2.6646,-2.6698,-2.6711,-2.6673,-2.6671,-2.6678,-2.6725,-2.6744,-2.6749,-2.683,-2.6762,-2.6766,-2.6769,-2.6771,-2.6972,-2.6974,0,0,0,0,0,0,-2.6557,-2.6567,-2.6675,-2.6679,-2.66,-2.6644,-2.6651,-2.6679,-2.671,-2.6713,-2.668,-2.6677,-2.6737,-2.6744,-2.6751,-2.6841,-2.6767,-2.6771,-2.6774,-2.6969,-2.6972,-2.6975,0,0,0,0,0,0,-2.6554,-2.6567,-2.6673,-2.6623,-2.6636,-2.6649,-2.668,-2.6681,-2.6699,-2.6716,-2.6718,-2.6697,-2.6735,-2.6745,-2.6806,-2.6842,-2.6773,-2.6778,-2.6966,-2.697,-2.6973,-2.7021,0,0,0,0,0,0,-2.655,-2.6566,-2.6596,-2.6624,-2.6638,-2.6727,-2.6683,-2.6684,-2.6708,-2.6704,-2.6732,-2.6735,-2.6734,-2.6799,-2.681,-2.6847,-2.6781,-2.6963,-2.6968,-2.6972,-2.7016,-2.7026,-2.7034,0,0,0,0,0,-2.6545,-2.6606,-2.6597,-2.661,-2.6676,-2.673,-2.6738,-2.6737,-2.6711,-2.674,-2.6751,-2.6734,-2.6837,-2.6805,-2.6818,-2.6857,-2.696,-2.6966,-2.6972,-2.7012,-2.7024,-2.7034,0,0,0,0,0,0,-2.6581,-2.661,-2.66,-2.6673,-2.6699,-2.6725,-2.6762,-2.675,-2.6783,-2.6778,-2.6775,-2.6781,-2.6844,-2.6857,-2.6821,-2.6931,-2.6894,-2.6903,-2.6921,-2.6932,-2.6941,-2.6936,-2.6785,0,0,0,0,0,-2.6598,-2.664,-2.6662,-2.6724,-2.6738,-2.6748,-2.6771,-2.6768,-2.6795,-2.6805,-2.682,-2.6846,-2.6884,-2.6909,-2.6945,-2.7018,-2.7023,-2.7051,-2.706,-2.7068,-2.7075,-2.7113,-2.7125,-2.6994,-2.6994,-2.6994,0,0,-2.6632,-2.6653,-2.668,-2.6732,-2.6752,-2.6794,-2.6757,-2.6804,-2.6835,-2.6812,-2.687,-2.6883,-2.691,-2.6978,-2.7008,-2.699,-2.7112,-2.7075,-2.7081,-2.7084,-2.712,-2.7132,-2.7143,-2.6998,-2.6997,-2.6997,0,0,-2.6717,-2.6738,-2.6791,-2.6812,-2.6843,-2.6849,-2.6862,-2.6889,-2.6896,-2.6955,-2.6938,-2.6975,-2.7041,-2.7061,-2.708,-2.7171,-2.7156,-2.7183,-2.723,-2.7268,-2.7278,-2.7287,-2.7318,-2.733,-2.719,-2.719,-2.7191,0,-2.6755,-2.682,-2.6819,-2.6867,-2.689,-2.6873,-2.6926,-2.6946,-2.6986,-2.7002,-2.6981,-2.7063,-2.7081,-2.7152,-2.7174,-2.7191,-2.7204,-2.7179,-2.7277,-2.7286,-2.7294,-2.7324,-2.7336,-2.7193,-2.7193,-2.7193,-2.7193,0,-2.6865,-2.691,-2.6949,-2.699,-2.7017,-2.7067,-2.7073,-2.7101,-2.7095,-2.7103,-2.7162,-2.7183,-2.7222,-2.7239,-2.7235,-2.7309,-2.7297,-2.7277,-2.724,-2.731,-2.7337,-2.7349,-2.7198,-2.7197,-2.7196,-2.7195,0,0,-2.6974,-2.7014,-2.7028,-2.7045,-2.7078,-2.7112,-2.7161,-2.7201,-2.7223,-2.7252,-2.7292,-2.7348,-2.7329,-2.7351,-2.7348,-2.7381,-2.745,-2.7356,-2.7357,-2.7372,-2.7532,-2.7546,-2.756,-2.7441,-2.7443,-2.7445,-2.753,0,-2.7059,-2.7146,-2.7147,-2.7226,-2.7266,-2.725,-2.7292,-2.7316,-2.7325,-2.7359,-2.7368,-2.7407,-2.7381,-2.7393,-2.7425,-2.7435,-2.7482,-2.7429,-2.7476,-2.7478,-2.7469,-2.7575,-2.759,-2.7669,-2.7541,-2.7542,-2.7544,0,-2.7171,-2.7204,-2.7287,-2.7313,-2.733,-2.7368,-2.7404,-2.7438,-2.7464,-2.7468,-2.7492,-2.7484,-2.7532,-2.7494,-2.756,-2.7524,-2.7543,-2.7551,-2.7554,-2.7557,-2.7514,-2.7579,-2.7694,-2.7705,-2.7561,-2.756,-2.7559,0,-2.724,-2.7305,-2.7363,-2.7379,-2.7411,-2.7438,-2.7452,-2.7477,-2.75,-2.7531,-2.7545,-2.7581,-2.7601,-2.7628,-2.7629,-2.7602,-2.7695,-2.7657,-2.7698,-2.7698,-2.7717,-2.7715,-2.7835,-2.7732,-2.7732,-2.7731,-2.7731,0,-2.7334,-2.7386,-2.7394,-2.743,-2.7486,-2.7486,-2.7542,-2.7554,-2.7575,-2.7612,-2.76,-2.7634,-2.7635,-2.7669,-2.767,-2.7723,-2.7733,-2.7736,-2.7735,-2.7736,-2.7736,-2.7748,-2.7742,-2.7734,-2.7734,-2.7733,-2.7733,0,-2.742,-2.7429,-2.7491,-2.7516,-2.7524,-2.7564,-2.7585,-2.7618,-2.7626,-2.7672,-2.7683,-2.7694,-2.7734,-2.7739,-2.7785,-2.7786,-2.7849,-2.7844,-2.7841,-2.7839,-2.7879,-2.7875,-2.8009,-2.8026,-2.7913,-2.7914,-2.7915,0,-2.748,-2.7519,-2.7549,-2.7573,-2.7589,-2.7628,-2.7652,-2.7653,-2.7678,-2.7711,-2.774,-2.7779,-2.781,-2.7874,-2.7886,-2.7921,-2.7915,-2.796,-2.792,-2.7919,-2.7914,-2.7911,-2.7914,-2.7967,-2.7968,-2.7969,-2.797,0,-2.7584,-2.7586,-2.7621,-2.7658,-2.7687,-2.7716,-2.7743,-2.7763,-2.7767,-2.7796,-2.7837,-2.7861,-2.7909,-2.7947,-2.7982,-2.7995,-2.7983,-2.7983,-2.7994,-2.7994,-2.799,-2.7992,-2.786,-2.7979,-2.7978,-2.7978,-2.7977,-2.7977,-2.7657,-2.7691,-2.7717,-2.7757,-2.7777,-2.7803,-2.7835,-2.7846,-2.7881,-2.7921,-2.7919,-2.7964,-2.7988,-2.8033,-2.8049,-2.8084,-2.8068,-2.8085,-2.8088,-2.8092,-2.8095,-2.7986,-2.809,-2.809,-2.8089,-2.8089,-2.8089,0,-2.7759,-2.7775,-2.7812,-2.785,-2.7881,-2.7869,-2.7897,-2.7924,-2.7964,-2.7988,-2.8019,-2.8066,-2.8103,-2.8117,-2.8153,-2.8177,-2.8173,-2.8187,-2.8184,-2.8187,-2.8108,-2.8094,-2.819,-2.819,-2.819,-2.819,-2.819,-2.819,-2.7816,-2.7872,-2.7877,-2.7942,-2.7957,-2.8002,-2.802,-2.8042,-2.8061,-2.8115,-2.8146,-2.8155,-2.8175,-2.8212,-2.8245,-2.8248,-2.8261,-2.8277,-2.8278,-2.8203,-2.8193,-2.8183,-2.817,-2.8281,-2.8281,-2.8354,-2.8355,-2.8356]}]]